Time,TemperatureF,DewpointF,PressureIn,WindDirection,WindDirectionDegrees,WindSpeedMPH,WindSpeedGustMPH,Humidity,HourlyPrecipIn,Conditions,Clouds,dailyrainin,SoftwareType,DateUTC
2013-02-22 00:00:00,20.8,14.2,30.11,NE,45,8.0,9.0,75,0.00,CLR,,0.00,WeatherDisplay:10.37,2013-02-22 06:00:00,
2013-02-22 00:05:00,20.8,14.2,30.11,NE,36,6.0,6.0,75,0.00,CLR,,0.00,WeatherDisplay:10.37,2013-02-22 06:05:00,
2013-02-22 00:10:00,20.8,14.2,30.11,NNE,33,1.0,6.0,75,0.00,CLR,,0.00,WeatherDisplay:10.37,2013-02-22 06:10:00,
2013-02-22 00:15:00,20.8,14.2,30.10,NE,40,8.0,20.0,75,0.00,CLR,,0.00,WeatherDisplay:10.37,2013-02-22 06:15:00,
2013-02-22 00:20:00,20.8,14.2,30.10,NE,38,8.0,9.0,75,0.00,CLR,,0.00,WeatherDisplay:10.37,2013-02-22 06:20:00,
2013-02-22 00:25:00,20.8,14.2,30.10,NNE,32,0.0,9.0,75,0.00,CLR,,0.00,WeatherDisplay:10.37,2013-02-22 06:25:00,
2013-02-22 00:30:00,20.8,14.2,30.10,NE,44,0.0,12.0,75,0.00,CLR,,0.00,WeatherDisplay:10.37,2013-02-22 06:30:00,
2013-02-22 00:35:00,20.8,14.2,30.10,NE,43,10.0,11.0,75,0.00,CLR,,0.00,WeatherDisplay:10.37,2013-02-22 06:35:00,
2013-02-22 00:40:00,21.0,14.3,30.10,NE,42,12.0,14.0,75,0.00,CLR,,0.00,WeatherDisplay:10.37,2013-02-22 06:40:00,
2013-02-22 00:45:00,21.0,14.3,30.10,NE,51,10.0,14.0,75,0.00,CLR,,0.00,WeatherDisplay:10.37,2013-02-22 06:45:00,
2013-02-22 00:50:00,21.0,14.3,30.10,NE,49,6.0,14.0,75,0.00,CLR,,0.00,WeatherDisplay:10.37,2013-02-22 06:50:00,
2013-02-22 00:55:00,20.8,14.2,30.09,NE,38,8.0,14.0,75,0.00,CLR,,0.00,WeatherDisplay:10.37,2013-02-22 06:55:00,
2013-02-22 01:00:00,20.8,14.2,30.09,NNE,31,9.0,14.0,75,0.00,CLR,,0.00,WeatherDisplay:10.37,2013-02-22 07:00:00,
2013-02-22 01:05:00,20.8,14.2,30.09,NNE,32,12.0,13.0,75,0.00,CLR,,0.00,WeatherDisplay:10.37,2013-02-22 07:05:00,
2013-02-22 01:10:00,20.8,14.2,30.08,NNE,29,8.0,10.0,75,0.00,CLR,,0.00,WeatherDisplay:10.37,2013-02-22 07:10:00,
2013-02-22 01:15:00,20.8,14.2,30.08,NNE,27,7.0,9.0,75,0.00,CLR,,0.00,WeatherDisplay:10.37,2013-02-22 07:15:00,
2013-02-22 01:20:00,20.8,14.2,30.08,NNE,30,3.0,5.0,75,0.00,CLR,,0.00,WeatherDisplay:10.37,2013-02-22 07:20:00,
2013-02-22 01:25:00,20.8,14.2,30.08,NNE,30,13.0,13.0,75,0.00,CLR,,0.00,WeatherDisplay:10.37,2013-02-22 07:25:00,
2013-02-22 01:30:00,20.8,14.2,30.07,NNE,19,9.0,13.0,75,0.00,CLR,,0.00,WeatherDisplay:10.37,2013-02-22 07:30:00,
2013-02-22 01:35:00,20.8,14.2,30.07,NNE,30,12.0,12.0,75,0.00,CLR,,0.00,WeatherDisplay:10.37,2013-02-22 07:35:00,
2013-02-22 01:40:00,20.8,14.2,30.06,NE,41,8.0,11.0,75,0.00,CLR,,0.00,WeatherDisplay:10.37,2013-02-22 07:40:00,
2013-02-22 01:45:00,20.8,14.2,30.05,NE,38,9.0,14.0,75,0.00,CLR,,0.00,WeatherDisplay:10.37,2013-02-22 07:45:00,
2013-02-22 01:50:00,20.8,14.2,30.05,NE,41,0.0,14.0,75,0.00,CLR,,0.00,WeatherDisplay:10.37,2013-02-22 07:50:00,
2013-02-22 01:55:00,20.8,14.2,30.05,NE,49,7.0,13.0,75,0.00,CLR,,0.00,WeatherDisplay:10.37,2013-02-22 07:55:00,
2013-02-22 02:00:00,20.8,14.2,30.05,NNE,31,8.0,14.0,75,0.00,CLR,,0.00,WeatherDisplay:10.37,2013-02-22 08:00:00,
2013-02-22 02:05:00,20.8,14.2,30.04,NE,45,5.0,14.0,75,0.00,CLR,,0.00,WeatherDisplay:10.37,2013-02-22 08:05:00,
2013-02-22 02:10:00,20.8,14.2,30.04,NE,49,9.0,9.0,75,0.00,CLR,,0.00,WeatherDisplay:10.37,2013-02-22 08:10:00,
2013-02-22 02:15:00,20.8,14.2,30.04,NNE,29,13.0,13.0,75,0.00,CLR,,0.00,WeatherDisplay:10.37,2013-02-22 08:15:00,
2013-02-22 02:20:00,20.8,14.2,30.04,NE,41,3.0,9.0,75,0.00,CLR,,0.00,WeatherDisplay:10.37,2013-02-22 08:20:00,
2013-02-22 02:25:00,20.8,14.2,30.03,NE,45,5.0,9.0,75,0.00,CLR,,0.00,WeatherDisplay:10.37,2013-02-22 08:25:00,
2013-02-22 02:30:00,20.8,14.2,30.03,NE,34,9.0,9.0,75,0.00,CLR,,0.00,WeatherDisplay:10.37,2013-02-22 08:30:00,
2013-02-22 02:35:00,20.8,14.2,30.03,NE,44,10.0,12.0,75,0.00,CLR,,0.00,WeatherDisplay:10.37,2013-02-22 08:35:00,
2013-02-22 02:40:00,20.8,14.2,30.03,NE,38,13.0,14.0,75,0.00,CLR,,0.00,WeatherDisplay:10.37,2013-02-22 08:40:00,
2013-02-22 02:45:00,20.8,14.2,30.02,NE,41,9.0,14.0,75,0.00,CLR,,0.00,WeatherDisplay:10.37,2013-02-22 08:45:00,
2013-02-22 02:50:00,20.8,14.2,30.02,NE,45,2.0,5.0,75,0.00,CLR,,0.00,WeatherDisplay:10.37,2013-02-22 08:50:00,
2013-02-22 02:55:00,20.8,14.2,30.02,NE,39,14.0,14.0,75,0.00,CLR,,0.00,WeatherDisplay:10.37,2013-02-22 08:55:00,
2013-02-22 03:00:00,20.6,14.0,30.02,NE,41,8.0,14.0,75,0.00,CLR,,0.00,WeatherDisplay:10.37,2013-02-22 09:00:00,
2013-02-22 03:05:00,20.5,13.8,30.01,NE,47,13.0,13.0,75,0.00,CLR,,0.00,WeatherDisplay:10.37,2013-02-22 09:05:00,
2013-02-22 03:10:00,20.5,13.8,30.01,NNE,30,14.0,14.0,75,0.00,CLR,,0.00,WeatherDisplay:10.37,2013-02-22 09:10:00,
2013-02-22 03:15:00,20.5,13.8,30.01,NE,47,0.0,14.0,75,0.00,CLR,,0.00,WeatherDisplay:10.37,2013-02-22 09:15:00,
2013-02-22 03:20:00,20.5,14.1,30.01,ENE,60,7.0,8.0,76,0.00,CLR,,0.00,WeatherDisplay:10.37,2013-02-22 09:20:00,
2013-02-22 03:25:00,20.5,14.1,30.00,NE,36,8.0,8.0,76,0.00,CLR,,0.00,WeatherDisplay:10.37,2013-02-22 09:25:00,
2013-02-22 03:30:00,20.5,14.1,30.00,NE,36,9.0,16.0,76,0.00,CLR,,0.00,WeatherDisplay:10.37,2013-02-22 09:30:00,
2013-02-22 03:40:00,20.5,14.1,30.00,NNE,29,0.0,10.0,76,0.00,CLR,,0.00,WeatherDisplay:10.37,2013-02-22 09:40:00,
2013-02-22 03:45:00,20.5,14.1,29.99,NNE,28,12.0,12.0,76,0.00,CLR,,0.00,WeatherDisplay:10.37,2013-02-22 09:45:00,
2013-02-22 03:50:00,20.5,14.1,29.99,NNE,23,8.0,10.0,76,0.00,CLR,,0.00,WeatherDisplay:10.37,2013-02-22 09:50:00,
2013-02-22 03:55:00,20.3,14.2,29.99,NNE,28,0.0,13.0,77,0.00,CLR,,0.00,WeatherDisplay:10.37,2013-02-22 09:55:00,
2013-02-22 04:00:00,20.3,14.2,29.98,NE,44,5.0,7.0,77,0.00,CLR,,0.00,WeatherDisplay:10.37,2013-02-22 10:00:00,
2013-02-22 04:05:00,20.3,14.2,29.98,NE,41,14.0,15.0,77,0.00,CLR,,0.00,WeatherDisplay:10.37,2013-02-22 10:05:00,
2013-02-22 04:10:00,20.3,14.5,29.98,NE,39,7.0,10.0,78,0.00,CLR,,0.00,WeatherDisplay:10.37,2013-02-22 10:10:00,
2013-02-22 04:15:00,20.2,14.4,29.98,NE,43,9.0,13.0,78,0.00,CLR,,0.00,WeatherDisplay:10.37,2013-02-22 10:15:00,
2013-02-22 04:20:00,20.1,14.4,29.98,NE,44,13.0,16.0,78,0.00,CLR,,0.00,WeatherDisplay:10.37,2013-02-22 10:20:00,
2013-02-22 04:25:00,20.1,14.7,29.98,NE,53,8.0,16.0,79,0.00,CLR,,0.00,WeatherDisplay:10.37,2013-02-22 10:25:00,
2013-02-22 04:30:00,20.1,14.6,29.98,NE,45,7.0,12.0,79,0.00,CLR,,0.00,WeatherDisplay:10.37,2013-02-22 10:30:00,
2013-02-22 04:35:00,19.9,14.5,29.98,NE,42,5.0,11.0,79,0.00,CLR,,0.00,WeatherDisplay:10.37,2013-02-22 10:35:00,
2013-02-22 04:40:00,19.9,14.5,29.97,NNE,24,10.0,10.0,79,0.00,CLR,,0.00,WeatherDisplay:10.37,2013-02-22 10:40:00,
2013-02-22 04:45:00,19.9,14.5,29.98,NNE,15,1.0,10.0,79,0.00,CLR,,0.00,WeatherDisplay:10.37,2013-02-22 10:45:00,
2013-02-22 04:50:00,19.9,14.8,29.98,NNE,22,9.0,9.0,80,0.00,CLR,,0.00,WeatherDisplay:10.37,2013-02-22 10:50:00,
2013-02-22 04:55:00,19.9,14.8,29.98,NNE,24,7.0,9.0,80,0.00,CLR,,0.00,WeatherDisplay:10.37,2013-02-22 10:55:00,
2013-02-22 05:00:00,19.9,14.7,29.98,NNE,28,0.0,7.0,80,0.00,CLR,,0.00,WeatherDisplay:10.37,2013-02-22 11:00:00,
2013-02-22 05:05:00,19.8,14.6,29.98,NNE,24,0.0,5.0,80,0.00,CLR,,0.00,WeatherDisplay:10.37,2013-02-22 11:05:00,
2013-02-22 05:10:00,19.8,14.6,29.98,NE,36,0.0,0.0,80,0.00,CLR,,0.00,WeatherDisplay:10.37,2013-02-22 11:10:00,
2013-02-22 05:15:00,19.8,14.6,29.98,NNE,25,12.0,12.0,80,0.00,CLR,,0.00,WeatherDisplay:10.37,2013-02-22 11:15:00,
2013-02-22 05:20:00,19.8,14.6,29.98,NNE,26,8.0,12.0,80,0.00,CLR,,0.00,WeatherDisplay:10.37,2013-02-22 11:20:00,
2013-02-22 05:25:00,19.8,14.6,29.98,NE,34,3.0,12.0,80,0.00,CLR,,0.00,WeatherDisplay:10.37,2013-02-22 11:25:00,
2013-02-22 05:30:00,19.6,14.4,29.97,NNE,31,12.0,12.0,80,0.00,CLR,,0.00,WeatherDisplay:10.37,2013-02-22 11:30:00,
2013-02-22 05:35:00,19.6,14.4,29.97,NE,36,9.0,12.0,80,0.00,CLR,,0.00,WeatherDisplay:10.37,2013-02-22 11:35:00,
2013-02-22 05:40:00,19.6,14.4,29.97,NE,38,0.0,8.0,80,0.00,CLR,,0.00,WeatherDisplay:10.37,2013-02-22 11:40:00,
2013-02-22 05:45:00,19.6,14.4,29.97,NNE,20,0.0,8.0,80,0.00,CLR,,0.00,WeatherDisplay:10.37,2013-02-22 11:45:00,
2013-02-22 05:50:00,19.6,14.7,29.96,NNE,28,5.0,8.0,81,0.00,CLR,,0.00,WeatherDisplay:10.37,2013-02-22 11:50:00,
2013-02-22 05:55:00,19.6,14.4,29.97,NNE,31,8.0,9.0,80,0.00,CLR,,0.00,WeatherDisplay:10.37,2013-02-22 11:55:00,
2013-02-22 06:00:00,19.6,14.7,29.97,NNE,22,3.0,9.0,81,0.00,CLR,,0.00,WeatherDisplay:10.37,2013-02-22 12:00:00,
2013-02-22 06:05:00,19.6,14.7,29.97,NNE,22,9.0,10.0,81,0.00,CLR,,0.00,WeatherDisplay:10.37,2013-02-22 12:05:00,
2013-02-22 06:10:00,19.6,14.7,29.97,NNE,22,12.0,14.0,81,0.00,CLR,,0.00,WeatherDisplay:10.37,2013-02-22 12:10:00,
2013-02-22 06:15:00,19.6,14.7,29.97,NNE,25,8.0,14.0,81,0.00,CLR,,0.00,WeatherDisplay:10.37,2013-02-22 12:15:00,
2013-02-22 06:20:00,19.6,14.7,29.97,NNE,26,2.0,5.0,81,0.00,CLR,,0.00,WeatherDisplay:10.37,2013-02-22 12:20:00,
2013-02-22 06:25:00,19.6,14.7,29.97,NNE,22,5.0,5.0,81,0.00,CLR,,0.00,WeatherDisplay:10.37,2013-02-22 12:25:00,
2013-02-22 06:30:00,19.6,14.7,29.96,NNE,29,0.0,5.0,81,0.00,CLR,,0.00,WeatherDisplay:10.37,2013-02-22 12:30:00,
2013-02-22 06:35:00,19.6,14.7,29.96,NNE,25,9.0,10.0,81,0.00,CLR,,0.00,WeatherDisplay:10.37,2013-02-22 12:35:00,
2013-02-22 06:40:00,19.8,14.9,29.96,NNE,31,8.0,8.0,81,0.00,CLR,,0.00,WeatherDisplay:10.37,2013-02-22 12:40:00,
2013-02-22 06:50:00,19.8,14.9,29.96,NNE,33,8.0,9.0,81,0.00,CLR,,0.00,WeatherDisplay:10.37,2013-02-22 12:50:00,
2013-02-22 06:55:00,19.8,14.9,29.96,NNE,22,8.0,9.0,81,0.00,CLR,,0.00,WeatherDisplay:10.37,2013-02-22 12:55:00,
2013-02-22 07:00:00,19.9,15.0,29.96,NNE,31,5.0,9.0,81,0.00,CLR,,0.00,WeatherDisplay:10.37,2013-02-22 13:00:00,
2013-02-22 07:05:00,19.8,14.9,29.96,NNE,28,9.0,12.0,81,0.00,CLR,,0.00,WeatherDisplay:10.37,2013-02-22 13:05:00,
2013-02-22 07:10:00,19.8,14.9,29.96,NNE,29,3.0,10.0,81,0.00,CLR,,0.00,WeatherDisplay:10.37,2013-02-22 13:10:00,
2013-02-22 07:15:00,19.9,15.0,29.96,NNE,31,1.0,12.0,81,0.00,CLR,,0.00,WeatherDisplay:10.37,2013-02-22 13:15:00,
2013-02-22 07:20:00,19.9,15.0,29.96,NNE,28,2.0,12.0,81,0.00,CLR,,0.00,WeatherDisplay:10.37,2013-02-22 13:20:00,
2013-02-22 07:25:00,19.9,15.0,29.96,NNE,24,7.0,8.0,81,0.00,CLR,,0.00,WeatherDisplay:10.37,2013-02-22 13:25:00,
2013-02-22 07:30:00,19.9,15.0,29.96,NNE,16,7.0,8.0,81,0.00,CLR,,0.00,WeatherDisplay:10.37,2013-02-22 13:30:00,
2013-02-22 07:35:00,20.1,15.2,29.96,NNE,28,1.0,10.0,81,0.00,CLR,,0.00,WeatherDisplay:10.37,2013-02-22 13:35:00,
2013-02-22 07:40:00,20.1,15.2,29.95,NNE,28,10.0,11.0,81,0.00,CLR,,0.00,WeatherDisplay:10.37,2013-02-22 13:40:00,
2013-02-22 07:45:00,20.1,15.2,29.95,NNE,29,2.0,11.0,81,0.00,CLR,,0.00,WeatherDisplay:10.37,2013-02-22 13:45:00,
2013-02-22 07:50:00,20.3,15.1,29.95,NNE,30,8.0,9.0,80,0.00,CLR,,0.00,WeatherDisplay:10.37,2013-02-22 13:50:00,
2013-02-22 07:55:00,20.5,15.3,29.95,NNE,14,5.0,8.0,80,0.00,CLR,,0.00,WeatherDisplay:10.37,2013-02-22 13:55:00,
2013-02-22 08:00:00,20.8,15.6,29.95,North,10,9.0,9.0,80,0.00,CLR,,0.00,WeatherDisplay:10.37,2013-02-22 14:00:00,
2013-02-22 08:05:00,21.0,15.8,29.94,NNE,22,3.0,8.0,80,0.00,CLR,,0.00,WeatherDisplay:10.37,2013-02-22 14:05:00,
2013-02-22 08:10:00,21.4,15.9,29.95,NNE,29,3.0,8.0,79,0.00,CLR,,0.00,WeatherDisplay:10.37,2013-02-22 14:10:00,
2013-02-22 08:15:00,21.6,16.1,29.94,NNE,21,10.0,12.0,79,0.00,CLR,,0.00,WeatherDisplay:10.37,2013-02-22 14:15:00,
2013-02-22 08:20:00,21.6,16.1,29.94,NNE,21,7.0,9.0,79,0.00,CLR,,0.00,WeatherDisplay:10.37,2013-02-22 14:20:00,
2013-02-22 08:25:00,21.7,16.2,29.94,NNE,28,3.0,7.0,79,0.00,CLR,,0.00,WeatherDisplay:10.37,2013-02-22 14:25:00,
2013-02-22 08:30:00,21.7,15.9,29.94,NNE,24,10.0,12.0,78,0.00,CLR,,0.00,WeatherDisplay:10.37,2013-02-22 14:30:00,
2013-02-22 08:35:00,21.9,16.1,29.94,NNE,27,6.0,7.0,78,0.00,CLR,,0.00,WeatherDisplay:10.37,2013-02-22 14:35:00,
2013-02-22 08:40:00,22.1,16.3,29.93,NE,34,13.0,14.0,78,0.00,CLR,,0.00,WeatherDisplay:10.37,2013-02-22 14:40:00,
2013-02-22 08:45:00,22.3,16.5,29.93,NNE,27,7.0,14.0,78,0.00,CLR,,0.00,WeatherDisplay:10.37,2013-02-22 14:45:00,
2013-02-22 08:50:00,22.5,16.6,29.93,NE,34,10.0,12.0,78,0.00,CLR,,0.00,WeatherDisplay:10.37,2013-02-22 14:50:00,
2013-02-22 08:55:00,22.8,16.7,29.93,NNE,30,9.0,9.0,77,0.00,CLR,,0.00,WeatherDisplay:10.37,2013-02-22 14:55:00,
2013-02-22 09:00:00,23.0,16.9,29.93,NNE,24,9.0,9.0,77,0.00,CLR,,0.00,WeatherDisplay:10.37,2013-02-22 15:00:00,
2013-02-22 09:05:00,23.5,17.1,29.92,NNE,27,3.0,10.0,76,0.00,CLR,,0.00,WeatherDisplay:10.37,2013-02-22 15:05:00,
2013-02-22 09:10:00,23.7,17.3,29.93,NNE,30,0.0,7.0,76,0.00,CLR,,0.00,WeatherDisplay:10.37,2013-02-22 15:10:00,
2013-02-22 09:15:00,23.8,17.4,29.92,NNE,30,7.0,8.0,76,0.00,CLR,,0.00,WeatherDisplay:10.37,2013-02-22 15:15:00,
2013-02-22 09:20:00,23.9,17.1,29.92,NNE,30,7.0,9.0,75,0.00,CLR,,0.00,WeatherDisplay:10.37,2013-02-22 15:20:00,
2013-02-22 09:25:00,23.9,17.4,29.93,NNE,32,2.0,9.0,76,0.00,CLR,,0.00,WeatherDisplay:10.37,2013-02-22 15:25:00,
2013-02-22 09:30:00,24.1,17.6,29.93,NE,40,8.0,9.0,76,0.00,CLR,,0.00,WeatherDisplay:10.37,2013-02-22 15:30:00,
2013-02-22 09:35:00,24.0,17.2,29.93,ENE,57,9.0,12.0,75,0.00,CLR,,0.00,WeatherDisplay:10.37,2013-02-22 15:35:00,
2013-02-22 09:40:00,24.1,17.6,29.93,NE,50,7.0,8.0,76,0.00,CLR,,0.00,WeatherDisplay:10.37,2013-02-22 15:40:00,
2013-02-22 09:45:00,24.3,17.8,29.92,NNE,32,8.0,8.0,76,0.00,CLR,,0.00,WeatherDisplay:10.37,2013-02-22 15:45:00,
2013-02-22 09:50:00,24.4,18.0,29.92,NNE,32,5.0,8.0,76,0.00,CLR,,0.00,WeatherDisplay:10.37,2013-02-22 15:50:00,
2013-02-22 09:55:00,24.4,18.0,29.92,NE,36,2.0,7.0,76,0.00,CLR,,0.00,WeatherDisplay:10.37,2013-02-22 15:55:00,
2013-02-22 10:00:00,24.5,18.0,29.92,NE,44,1.0,13.0,76,0.00,CLR,,0.00,WeatherDisplay:10.37,2013-02-22 16:00:00,
2013-02-22 10:05:00,24.6,18.1,29.92,NE,34,0.0,13.0,76,0.00,CLR,,0.00,WeatherDisplay:10.37,2013-02-22 16:05:00,
2013-02-22 10:10:00,24.8,18.3,29.92,NNE,25,0.0,0.0,76,0.00,CLR,,0.00,WeatherDisplay:10.37,2013-02-22 16:10:00,
2013-02-22 10:15:00,25.5,18.7,29.91,NNE,31,0.0,7.0,75,0.00,CLR,,0.00,WeatherDisplay:10.37,2013-02-22 16:15:00,
2013-02-22 10:20:00,25.9,19.0,29.91,NE,35,5.0,10.0,75,0.00,CLR,,0.00,WeatherDisplay:10.37,2013-02-22 16:20:00,
2013-02-22 10:25:00,26.2,19.1,29.92,NNE,30,12.0,12.0,74,0.00,CLR,,0.00,WeatherDisplay:10.37,2013-02-22 16:25:00,
2013-02-22 10:30:00,26.2,18.8,29.92,NNE,22,0.0,16.0,73,0.00,CLR,,0.00,WeatherDisplay:10.37,2013-02-22 16:30:00,
2013-02-22 10:35:00,26.5,19.0,29.91,NNE,22,10.0,12.0,73,0.00,CLR,,0.00,WeatherDisplay:10.37,2013-02-22 16:35:00,
2013-02-22 10:40:00,26.6,18.8,29.91,NE,35,3.0,12.0,72,0.00,CLR,,0.00,WeatherDisplay:10.37,2013-02-22 16:40:00,
2013-02-22 10:45:00,27.0,19.2,29.91,NE,46,0.0,3.0,72,0.00,CLR,,0.00,WeatherDisplay:10.37,2013-02-22 16:45:00,
2013-02-22 10:50:00,27.5,19.3,29.91,NE,49,7.0,8.0,71,0.00,CLR,,0.00,WeatherDisplay:10.37,2013-02-22 16:50:00,
2013-02-22 10:55:00,27.5,19.3,29.91,NE,36,5.0,8.0,71,0.00,CLR,,0.00,WeatherDisplay:10.37,2013-02-22 16:55:00,
2013-02-22 11:00:00,27.2,19.0,29.91,NNE,33,6.0,16.0,71,0.00,CLR,,0.00,WeatherDisplay:10.37,2013-02-22 17:00:00,
2013-02-22 11:05:00,27.5,19.3,29.91,NNE,30,0.0,16.0,71,0.00,CLR,,0.00,WeatherDisplay:10.37,2013-02-22 17:05:00,
2013-02-22 11:10:00,27.7,19.2,29.91,NNE,33,7.0,9.0,70,0.00,CLR,,0.00,WeatherDisplay:10.37,2013-02-22 17:10:00,
2013-02-22 11:15:00,28.0,19.5,29.91,NE,34,7.0,9.0,70,0.00,CLR,,0.00,WeatherDisplay:10.37,2013-02-22 17:15:00,
2013-02-22 11:20:00,28.2,19.7,29.91,NNE,31,2.0,4.0,70,0.00,CLR,,0.00,WeatherDisplay:10.37,2013-02-22 17:20:00,
2013-02-22 11:25:00,28.6,20.0,29.91,ENE,62,0.0,4.0,70,0.00,CLR,,0.00,WeatherDisplay:10.37,2013-02-22 17:25:00,
2013-02-22 11:30:00,28.6,20.1,29.91,ENE,77,1.0,1.0,70,0.00,CLR,,0.00,WeatherDisplay:10.37,2013-02-22 17:30:00,
2013-02-22 11:35:00,29.1,20.2,29.91,NE,47,3.0,7.0,69,0.00,CLR,,0.00,WeatherDisplay:10.37,2013-02-22 17:35:00,
2013-02-22 11:40:00,29.1,20.2,29.91,NNE,24,5.0,7.0,69,0.00,CLR,,0.00,WeatherDisplay:10.37,2013-02-22 17:40:00,
2013-02-22 11:45:00,28.9,19.6,29.90,NE,40,7.0,8.0,68,0.00,CLR,,0.00,WeatherDisplay:10.37,2013-02-22 17:45:00,
2013-02-22 11:50:00,28.8,19.9,29.90,ENE,71,3.0,9.0,69,0.00,CLR,,0.00,WeatherDisplay:10.37,2013-02-22 17:50:00,
2013-02-22 11:55:00,29.1,20.2,29.90,NNE,14,0.0,9.0,69,0.00,CLR,,0.00,WeatherDisplay:10.37,2013-02-22 17:55:00,
2013-02-22 12:00:00,29.3,20.0,29.90,NNE,14,2.0,17.0,68,0.00,CLR,,0.00,WeatherDisplay:10.37,2013-02-22 18:00:00,
2013-02-22 12:05:00,29.3,20.4,29.90,NNE,23,0.0,0.0,69,0.00,CLR,,0.00,WeatherDisplay:10.37,2013-02-22 18:05:00,
2013-02-22 12:10:00,29.5,19.9,29.90,North,7,7.0,9.0,67,0.00,CLR,,0.00,WeatherDisplay:10.37,2013-02-22 18:10:00,
2013-02-22 12:15:00,29.2,19.9,29.90,NNE,18,15.0,16.0,68,0.00,CLR,,0.00,WeatherDisplay:10.37,2013-02-22 18:15:00,
2013-02-22 12:20:00,29.1,19.9,29.90,NNE,22,5.0,9.0,68,0.00,CLR,,0.00,WeatherDisplay:10.37,2013-02-22 18:20:00,
2013-02-22 12:25:00,29.1,19.9,29.90,NNE,21,1.0,10.0,68,0.00,CLR,,0.00,WeatherDisplay:10.37,2013-02-22 18:25:00,
2013-02-22 12:30:00,30.0,20.7,29.90,NNE,15,6.0,7.0,68,0.00,CLR,,0.00,WeatherDisplay:10.37,2013-02-22 18:30:00,
2013-02-22 12:35:00,30.4,20.7,29.89,NNE,18,7.0,8.0,67,0.00,CLR,,0.00,WeatherDisplay:10.37,2013-02-22 18:35:00,
2013-02-22 12:40:00,30.4,20.7,29.89,NNE,26,13.0,13.0,67,0.00,CLR,,0.00,WeatherDisplay:10.37,2013-02-22 18:40:00,
2013-02-22 12:45:00,30.1,20.5,29.89,NNE,28,3.0,13.0,67,0.00,CLR,,0.00,WeatherDisplay:10.37,2013-02-22 18:45:00,
2013-02-22 12:50:00,30.0,20.4,29.89,NE,36,6.0,10.0,67,0.00,CLR,,0.00,WeatherDisplay:10.37,2013-02-22 18:50:00,
2013-02-22 12:55:00,30.0,20.4,29.89,NE,37,0.0,6.0,67,0.00,CLR,,0.00,WeatherDisplay:10.37,2013-02-22 18:55:00,
2013-02-22 13:00:00,30.0,20.4,29.88,NNE,22,7.0,9.0,67,0.00,CLR,,0.00,WeatherDisplay:10.37,2013-02-22 19:00:00,
2013-02-22 13:05:00,29.7,20.0,29.88,NNE,28,2.0,9.0,67,0.00,CLR,,0.00,WeatherDisplay:10.37,2013-02-22 19:05:00,
2013-02-22 13:10:00,29.5,19.9,29.87,NNE,33,1.0,8.0,67,0.00,CLR,,0.00,WeatherDisplay:10.37,2013-02-22 19:10:00,
2013-02-22 13:15:00,30.0,20.4,29.88,NE,37,0.0,2.0,67,0.00,CLR,,0.00,WeatherDisplay:10.37,2013-02-22 19:15:00,
2013-02-22 13:20:00,30.9,20.9,29.88,NE,45,6.0,9.0,66,0.00,CLR,,0.00,WeatherDisplay:10.37,2013-02-22 19:20:00,
2013-02-22 13:25:00,30.7,20.7,29.87,NE,35,0.0,9.0,66,0.00,CLR,,0.00,WeatherDisplay:10.37,2013-02-22 19:25:00,
2013-02-22 13:30:00,30.9,20.9,29.87,NE,39,0.0,5.0,66,0.00,CLR,,0.00,WeatherDisplay:10.37,2013-02-22 19:30:00,
2013-02-22 13:35:00,30.7,20.4,29.87,NE,39,6.0,7.0,65,0.00,CLR,,0.00,WeatherDisplay:10.37,2013-02-22 19:35:00,
2013-02-22 13:40:00,31.1,20.7,29.87,NNE,29,0.0,9.0,65,0.00,CLR,,0.00,WeatherDisplay:10.37,2013-02-22 19:40:00,
2013-02-22 13:45:00,31.5,21.1,29.86,ENE,59,1.0,8.0,65,0.00,CLR,,0.00,WeatherDisplay:10.37,2013-02-22 19:45:00,
2013-02-22 13:50:00,31.8,21.4,29.86,ENE,63,0.0,8.0,65,0.00,CLR,,0.00,WeatherDisplay:10.37,2013-02-22 19:50:00,
2013-02-22 13:55:00,32.4,21.9,29.86,NE,49,0.0,0.0,65,0.00,CLR,,0.00,WeatherDisplay:10.37,2013-02-22 19:55:00,
2013-02-22 14:00:00,33.4,22.2,29.86,NE,53,0.0,8.0,63,0.00,CLR,,0.00,WeatherDisplay:10.37,2013-02-22 20:00:00,
2013-02-22 14:05:00,33.6,21.6,29.86,NE,52,3.0,5.0,61,0.00,CLR,,0.00,WeatherDisplay:10.37,2013-02-22 20:05:00,
2013-02-22 14:10:00,32.5,21.0,29.86,NE,38,10.0,10.0,62,0.00,CLR,,0.00,WeatherDisplay:10.37,2013-02-22 20:10:00,
2013-02-22 14:15:00,32.3,20.7,29.86,NE,37,1.0,10.0,62,0.00,CLR,,0.00,WeatherDisplay:10.37,2013-02-22 20:15:00,
2013-02-22 14:20:00,32.2,20.6,29.85,NNE,32,0.0,8.0,62,0.00,CLR,,0.00,WeatherDisplay:10.37,2013-02-22 20:20:00,
2013-02-22 14:25:00,32.5,21.0,29.85,NNE,33,3.0,6.0,62,0.00,CLR,,0.00,WeatherDisplay:10.37,2013-02-22 20:25:00,
2013-02-22 14:30:00,32.5,21.0,29.85,NE,41,2.0,10.0,62,0.00,CLR,,0.00,WeatherDisplay:10.37,2013-02-22 20:30:00,
2013-02-22 14:35:00,32.5,21.0,29.85,NE,37,1.0,10.0,62,0.00,CLR,,0.00,WeatherDisplay:10.37,2013-02-22 20:35:00,
2013-02-22 14:40:00,32.8,21.2,29.85,NE,43,0.0,3.0,62,0.00,CLR,,0.00,WeatherDisplay:10.37,2013-02-22 20:40:00,
2013-02-22 14:45:00,32.4,20.1,29.85,East,79,9.0,12.0,60,0.00,CLR,,0.00,WeatherDisplay:10.37,2013-02-22 20:45:00,
2013-02-22 14:50:00,32.7,21.1,29.85,East,83,1.0,3.0,62,0.00,CLR,,0.00,WeatherDisplay:10.37,2013-02-22 20:50:00,
2013-02-22 14:55:00,32.7,20.7,29.85,NE,50,0.0,0.0,61,0.00,CLR,,0.00,WeatherDisplay:10.37,2013-02-22 20:55:00,
2013-02-22 15:00:00,32.0,20.0,29.85,NE,44,2.0,9.0,61,0.00,CLR,,0.00,WeatherDisplay:10.37,2013-02-22 21:00:00,
2013-02-22 15:05:00,31.8,19.9,29.85,NE,37,0.0,8.0,61,0.00,CLR,,0.00,WeatherDisplay:10.37,2013-02-22 21:05:00,
2013-02-22 15:10:00,32.5,21.0,29.85,NE,36,0.0,0.0,62,0.00,CLR,,0.00,WeatherDisplay:10.37,2013-02-22 21:10:00,
2013-02-22 15:15:00,32.7,20.7,29.85,NE,46,6.0,8.0,61,0.00,CLR,,0.00,WeatherDisplay:10.37,2013-02-22 21:15:00,
2013-02-22 15:20:00,32.6,20.2,29.85,NE,52,3.0,7.0,60,0.00,CLR,,0.00,WeatherDisplay:10.37,2013-02-22 21:20:00,
2013-02-22 15:25:00,32.7,20.4,29.85,NE,50,0.0,0.0,60,0.00,CLR,,0.00,WeatherDisplay:10.37,2013-02-22 21:25:00,
2013-02-22 15:30:00,32.9,20.5,29.85,NE,37,0.0,0.0,60,0.00,CLR,,0.00,WeatherDisplay:10.37,2013-02-22 21:30:00,
2013-02-22 15:35:00,32.9,20.5,29.85,NE,51,0.0,0.0,60,0.00,CLR,,0.00,WeatherDisplay:10.37,2013-02-22 21:35:00,
2013-02-22 15:40:00,32.7,20.4,29.85,NNE,32,0.0,0.0,60,0.00,CLR,,0.00,WeatherDisplay:10.37,2013-02-22 21:40:00,
2013-02-22 15:45:00,32.3,19.9,29.85,NE,45,3.0,5.0,60,0.00,CLR,,0.00,WeatherDisplay:10.37,2013-02-22 21:45:00,
2013-02-22 15:50:00,32.4,20.4,29.86,ENE,78,0.0,0.0,61,0.00,CLR,,0.00,WeatherDisplay:10.37,2013-02-22 21:50:00,
2013-02-22 15:55:00,32.6,20.2,29.86,East,83,0.0,0.0,60,0.00,CLR,,0.00,WeatherDisplay:10.37,2013-02-22 21:55:00,
2013-02-22 16:00:00,32.5,20.1,29.86,ENE,71,0.0,0.0,60,0.00,CLR,,0.00,WeatherDisplay:10.37,2013-02-22 22:00:00,
2013-02-22 16:05:00,32.2,19.8,29.85,NE,45,0.0,0.0,60,0.00,CLR,,0.00,WeatherDisplay:10.37,2013-02-22 22:05:00,
2013-02-22 16:10:00,31.8,19.5,29.86,NNE,17,0.0,0.0,60,0.00,CLR,,0.00,WeatherDisplay:10.37,2013-02-22 22:10:00,
2013-02-22 16:15:00,31.6,19.7,29.86,NNE,13,0.0,0.0,61,0.00,CLR,,0.00,WeatherDisplay:10.37,2013-02-22 22:15:00,
2013-02-22 16:20:00,30.7,19.2,29.86,NNE,22,0.0,0.0,62,0.00,CLR,,0.00,WeatherDisplay:10.37,2013-02-22 22:20:00,
2013-02-22 16:25:00,30.7,19.2,29.86,NNE,22,0.0,0.0,62,0.00,CLR,,0.00,WeatherDisplay:10.37,2013-02-22 22:25:00,
2013-02-22 16:30:00,30.6,19.1,29.85,NNE,22,0.0,0.0,62,0.00,CLR,,0.00,WeatherDisplay:10.37,2013-02-22 22:30:00,
2013-02-22 16:35:00,30.4,18.9,29.86,NNE,22,0.0,0.0,62,0.00,CLR,,0.00,WeatherDisplay:10.37,2013-02-22 22:35:00,
2013-02-22 16:40:00,30.4,18.9,29.86,NNE,13,0.0,0.0,62,0.00,CLR,,0.00,WeatherDisplay:10.37,2013-02-22 22:40:00,
2013-02-22 16:45:00,30.0,18.9,29.86,North,0,0.0,0.0,63,0.00,CLR,,0.00,WeatherDisplay:10.37,2013-02-22 22:45:00,
2013-02-22 16:50:00,29.7,18.6,29.86,North,10,0.0,0.0,63,0.00,CLR,,0.00,WeatherDisplay:10.37,2013-02-22 22:50:00,
2013-02-22 16:55:00,29.5,18.4,29.86,North,9,0.0,10.0,63,0.00,CLR,,0.00,WeatherDisplay:10.37,2013-02-22 22:55:00,
2013-02-22 17:00:00,29.2,18.5,29.86,NNW,347,0.0,10.0,64,0.00,CLR,,0.00,WeatherDisplay:10.37,2013-02-22 23:00:00,
2013-02-22 17:05:00,28.9,18.6,29.86,NNW,344,6.0,8.0,65,0.00,CLR,,0.00,WeatherDisplay:10.37,2013-02-22 23:05:00,
2013-02-22 17:10:00,28.6,18.3,29.87,NNW,339,8.0,9.0,65,0.00,CLR,,0.00,WeatherDisplay:10.37,2013-02-22 23:10:00,
2013-02-22 17:15:00,28.2,18.7,29.87,NNW,340,1.0,3.0,67,0.00,CLR,,0.00,WeatherDisplay:10.37,2013-02-22 23:15:00,
2013-02-22 17:20:00,28.0,18.5,29.87,North,355,1.0,3.0,67,0.00,CLR,,0.00,WeatherDisplay:10.37,2013-02-22 23:20:00,
2013-02-22 17:25:00,27.9,18.3,29.87,North,3,2.0,5.0,67,0.00,CLR,,0.00,WeatherDisplay:10.37,2013-02-22 23:25:00,
2013-02-22 17:30:00,27.7,18.5,29.87,North,351,0.0,0.0,68,0.00,CLR,,0.00,WeatherDisplay:10.37,2013-02-22 23:30:00,
2013-02-22 17:35:00,27.3,18.5,29.86,NNW,338,0.0,0.0,69,0.00,CLR,,0.00,WeatherDisplay:10.37,2013-02-22 23:35:00,
2013-02-22 17:40:00,27.1,18.3,29.87,NNW,343,0.0,0.0,69,0.00,CLR,,0.00,WeatherDisplay:10.37,2013-02-22 23:40:00,
2013-02-22 17:45:00,27.0,18.5,29.87,North,351,0.0,0.0,70,0.00,CLR,,0.00,WeatherDisplay:10.37,2013-02-22 23:45:00,
2013-02-22 17:50:00,26.8,18.3,29.86,North,358,0.0,0.0,70,0.00,CLR,,0.00,WeatherDisplay:10.37,2013-02-22 23:50:00,
2013-02-22 17:55:00,26.6,18.1,29.87,North,349,0.0,0.0,70,0.00,CLR,,0.00,WeatherDisplay:10.37,2013-02-22 23:55:00,
2013-02-22 18:00:00,26.4,18.3,29.87,NNW,338,0.0,0.0,71,0.00,CLR,,0.00,WeatherDisplay:10.37,2013-02-23 00:00:00,
2013-02-22 18:05:00,26.4,18.3,29.87,NNW,348,1.0,5.0,71,0.00,CLR,,0.00,WeatherDisplay:10.37,2013-02-23 00:05:00,
2013-02-22 18:10:00,26.2,18.4,29.87,NNW,343,0.0,0.0,72,0.00,CLR,,0.00,WeatherDisplay:10.37,2013-02-23 00:10:00,
2013-02-22 18:15:00,26.2,18.4,29.87,NNW,334,0.0,0.0,72,0.00,CLR,,0.00,WeatherDisplay:10.37,2013-02-23 00:15:00,
2013-02-22 18:20:00,26.2,18.4,29.87,NNW,338,0.0,0.0,72,0.00,CLR,,0.00,WeatherDisplay:10.37,2013-02-23 00:20:00,
2013-02-22 18:25:00,26.1,18.3,29.87,NNW,338,0.0,0.0,72,0.00,CLR,,0.00,WeatherDisplay:10.37,2013-02-23 00:25:00,
2013-02-22 18:30:00,26.1,18.6,29.88,NNW,331,0.0,0.0,73,0.00,CLR,,0.00,WeatherDisplay:10.37,2013-02-23 00:30:00,
2013-02-22 18:35:00,26.1,18.6,29.88,NNW,330,0.0,0.0,73,0.00,CLR,,0.00,WeatherDisplay:10.37,2013-02-23 00:35:00,
2013-02-22 18:40:00,25.9,18.4,29.87,NNW,335,0.0,0.0,73,0.00,CLR,,0.00,WeatherDisplay:10.37,2013-02-23 00:40:00,
2013-02-22 18:45:00,25.9,18.7,29.87,NW,317,0.0,0.0,74,0.00,CLR,,0.00,WeatherDisplay:10.37,2013-02-23 00:45:00,
2013-02-22 18:50:00,25.9,18.7,29.87,NW,306,0.0,0.0,74,0.00,CLR,,0.00,WeatherDisplay:10.37,2013-02-23 00:50:00,
2013-02-22 18:55:00,25.7,18.6,29.87,WNW,297,0.0,0.0,74,0.00,CLR,,0.00,WeatherDisplay:10.37,2013-02-23 00:55:00,
2013-02-22 19:00:00,25.6,18.7,29.87,NW,304,0.0,0.0,75,0.00,CLR,,0.00,WeatherDisplay:10.37,2013-02-23 01:00:00,
2013-02-22 19:05:00,25.5,18.7,29.87,NNW,330,0.0,0.0,75,0.00,CLR,,0.00,WeatherDisplay:10.37,2013-02-23 01:05:00,
2013-02-22 19:10:00,25.5,18.7,29.87,NW,309,0.0,0.0,75,0.00,CLR,,0.00,WeatherDisplay:10.37,2013-02-23 01:10:00,
2013-02-22 19:15:00,25.4,18.6,29.88,WNW,287,0.0,0.0,75,0.00,CLR,,0.00,WeatherDisplay:10.37,2013-02-23 01:15:00,
2013-02-22 19:25:00,25.2,18.3,29.87,WNW,300,0.0,0.0,75,0.00,CLR,,0.00,WeatherDisplay:10.37,2013-02-23 01:25:00,
2013-02-22 19:30:00,25.2,18.7,29.87,WNW,302,0.0,0.0,76,0.00,CLR,,0.00,WeatherDisplay:10.37,2013-02-23 01:30:00,
2013-02-22 19:35:00,25.0,18.5,29.87,NW,314,0.0,0.0,76,0.00,CLR,,0.00,WeatherDisplay:10.37,2013-02-23 01:35:00,
2013-02-22 19:40:00,25.0,18.5,29.87,WNW,297,0.0,0.0,76,0.00,CLR,,0.00,WeatherDisplay:10.37,2013-02-23 01:40:00,
2013-02-22 19:45:00,25.0,18.5,29.87,WNW,291,0.0,0.0,76,0.00,CLR,,0.00,WeatherDisplay:10.37,2013-02-23 01:45:00,
2013-02-22 19:50:00,24.8,18.3,29.87,WNW,289,0.0,0.0,76,0.00,CLR,,0.00,WeatherDisplay:10.37,2013-02-23 01:50:00,
2013-02-22 19:55:00,24.6,18.1,29.87,WNW,296,0.0,0.0,76,0.00,CLR,,0.00,WeatherDisplay:10.37,2013-02-23 01:55:00,
2013-02-22 20:00:00,24.6,18.1,29.87,WNW,299,0.0,0.0,76,0.00,CLR,,0.00,WeatherDisplay:10.37,2013-02-23 02:00:00,
2013-02-22 20:05:00,24.6,18.1,29.87,WNW,288,0.0,0.0,76,0.00,CLR,,0.00,WeatherDisplay:10.37,2013-02-23 02:05:00,
2013-02-22 20:10:00,24.5,18.0,29.87,WNW,291,0.0,0.0,76,0.00,CLR,,0.00,WeatherDisplay:10.37,2013-02-23 02:10:00,
2013-02-22 20:15:00,24.4,18.0,29.87,WNW,293,0.0,0.0,76,0.00,CLR,,0.00,WeatherDisplay:10.37,2013-02-23 02:15:00,
2013-02-22 20:20:00,24.1,17.6,29.86,WNW,288,0.0,0.0,76,0.00,CLR,,0.00,WeatherDisplay:10.37,2013-02-23 02:20:00,
2013-02-22 20:25:00,24.1,17.6,29.86,WNW,291,0.0,0.0,76,0.00,CLR,,0.00,WeatherDisplay:10.37,2013-02-23 02:25:00,
2013-02-22 20:30:00,23.9,17.4,29.86,WNW,288,0.0,0.0,76,0.00,CLR,,0.00,WeatherDisplay:10.37,2013-02-23 02:30:00,
2013-02-22 20:35:00,23.6,17.1,29.86,WNW,286,0.0,0.0,76,0.00,CLR,,0.00,WeatherDisplay:10.37,2013-02-23 02:35:00,
2013-02-22 20:40:00,23.4,16.9,29.86,WNW,290,0.0,0.0,76,0.00,CLR,,0.00,WeatherDisplay:10.37,2013-02-23 02:40:00,
2013-02-22 20:45:00,23.2,17.0,29.86,WNW,292,0.0,0.0,77,0.00,CLR,,0.00,WeatherDisplay:10.37,2013-02-23 02:45:00,
2013-02-22 20:50:00,23.0,16.9,29.86,WNW,292,0.0,0.0,77,0.00,CLR,,0.00,WeatherDisplay:10.37,2013-02-23 02:50:00,
2013-02-22 20:55:00,22.8,16.7,29.86,WNW,292,0.0,0.0,77,0.00,CLR,,0.00,WeatherDisplay:10.37,2013-02-23 02:55:00,
2013-02-22 21:00:00,22.8,16.7,29.86,WNW,283,0.0,0.0,77,0.00,CLR,,0.00,WeatherDisplay:10.37,2013-02-23 03:00:00,
2013-02-22 21:05:00,22.8,16.7,29.86,West,272,0.0,0.0,77,0.00,CLR,,0.00,WeatherDisplay:10.37,2013-02-23 03:05:00,
2013-02-22 21:10:00,23.0,16.9,29.86,West,276,0.0,0.0,77,0.00,CLR,,0.00,WeatherDisplay:10.37,2013-02-23 03:10:00,
2013-02-22 21:15:00,23.0,16.9,29.86,WNW,288,0.0,0.0,77,0.00,CLR,,0.00,WeatherDisplay:10.37,2013-02-23 03:15:00,
2013-02-22 21:20:00,23.0,16.9,29.86,WNW,292,0.0,0.0,77,0.00,CLR,,0.00,WeatherDisplay:10.37,2013-02-23 03:20:00,
2013-02-22 21:25:00,23.0,16.9,29.86,WNW,284,0.0,0.0,77,0.00,CLR,,0.00,WeatherDisplay:10.37,2013-02-23 03:25:00,
2013-02-22 21:30:00,22.8,16.7,29.86,WNW,288,0.0,0.0,77,0.00,CLR,,0.00,WeatherDisplay:10.37,2013-02-23 03:30:00,
2013-02-22 21:35:00,22.8,16.7,29.86,NW,307,0.0,0.0,77,0.00,CLR,,0.00,WeatherDisplay:10.37,2013-02-23 03:35:00,
2013-02-22 21:40:00,22.8,16.7,29.85,NW,308,0.0,0.0,77,0.00,CLR,,0.00,WeatherDisplay:10.37,2013-02-23 03:40:00,
2013-02-22 21:45:00,22.8,16.7,29.86,WNW,296,0.0,0.0,77,0.00,CLR,,0.00,WeatherDisplay:10.37,2013-02-23 03:45:00,
2013-02-22 21:50:00,22.6,16.8,29.86,WNW,292,0.0,0.0,78,0.00,CLR,,0.00,WeatherDisplay:10.37,2013-02-23 03:50:00,
2013-02-22 21:55:00,22.4,16.3,29.85,WNW,291,0.0,0.0,77,0.00,CLR,,0.00,WeatherDisplay:10.37,2013-02-23 03:55:00,
2013-02-22 22:00:00,22.3,16.2,29.85,West,278,0.0,0.0,77,0.00,CLR,,0.00,WeatherDisplay:10.37,2013-02-23 04:00:00,
2013-02-22 22:05:00,22.3,16.5,29.85,West,270,0.0,0.0,78,0.00,CLR,,0.00,WeatherDisplay:10.37,2013-02-23 04:05:00,
2013-02-22 22:10:00,22.1,16.3,29.85,West,271,0.0,0.0,78,0.00,CLR,,0.00,WeatherDisplay:10.37,2013-02-23 04:10:00,
2013-02-22 22:15:00,22.1,16.3,29.85,WNW,284,0.0,0.0,78,0.00,CLR,,0.00,WeatherDisplay:10.37,2013-02-23 04:15:00,
2013-02-22 22:20:00,21.9,16.1,29.85,WNW,292,0.0,0.0,78,0.00,CLR,,0.00,WeatherDisplay:10.37,2013-02-23 04:20:00,
2013-02-22 22:30:00,21.5,15.7,29.85,WNW,292,0.0,0.0,78,0.00,CLR,,0.00,WeatherDisplay:10.37,2013-02-23 04:30:00,
2013-02-22 22:35:00,21.2,15.4,29.85,WNW,292,0.0,0.0,78,0.00,CLR,,0.00,WeatherDisplay:10.37,2013-02-23 04:35:00,
2013-02-22 22:40:00,20.8,15.0,29.85,WNW,292,0.0,0.0,78,0.00,CLR,,0.00,WeatherDisplay:10.37,2013-02-23 04:40:00,
2013-02-22 22:45:00,20.2,14.1,29.85,WNW,292,0.0,0.0,77,0.00,CLR,,0.00,WeatherDisplay:10.37,2013-02-23 04:45:00,
2013-02-22 22:50:00,19.6,13.8,29.85,WNW,292,0.0,0.0,78,0.00,CLR,,0.00,WeatherDisplay:10.37,2013-02-23 04:50:00,
2013-02-22 22:55:00,19.2,13.2,29.85,WNW,292,0.0,0.0,77,0.00,CLR,,0.00,WeatherDisplay:10.37,2013-02-23 04:55:00,
2013-02-22 23:00:00,18.6,12.5,29.85,WNW,292,0.0,0.0,77,0.00,CLR,,0.00,WeatherDisplay:10.37,2013-02-23 05:00:00,
2013-02-22 23:05:00,18.0,12.3,29.85,WNW,292,0.0,0.0,78,0.00,CLR,,0.00,WeatherDisplay:10.37,2013-02-23 05:05:00,
2013-02-22 23:10:00,17.4,11.4,29.84,WNW,292,0.0,0.0,77,0.00,CLR,,0.00,WeatherDisplay:10.37,2013-02-23 05:10:00,
2013-02-22 23:15:00,16.9,10.9,29.84,WNW,292,0.0,0.0,77,0.00,CLR,,0.00,WeatherDisplay:10.37,2013-02-23 05:15:00,
2013-02-22 23:20:00,16.5,10.8,29.84,WNW,292,0.0,0.0,78,0.00,CLR,,0.00,WeatherDisplay:10.37,2013-02-23 05:20:00,
2013-02-22 23:25:00,15.9,10.3,29.84,WNW,292,0.0,0.0,78,0.00,CLR,,0.00,WeatherDisplay:10.37,2013-02-23 05:25:00,
2013-02-22 23:30:00,15.6,10.0,29.85,WNW,292,0.0,0.0,78,0.00,CLR,,0.00,WeatherDisplay:10.37,2013-02-23 05:30:00,
2013-02-22 23:35:00,15.3,9.6,29.84,WNW,292,0.0,0.0,78,0.00,CLR,,0.00,WeatherDisplay:10.37,2013-02-23 05:35:00,
2013-02-22 23:45:00,14.2,8.6,29.84,WNW,292,0.0,0.0,78,0.00,CLR,,0.00,WeatherDisplay:10.37,2013-02-23 05:45:00,
2013-02-22 23:50:00,14.0,8.4,29.84,WNW,292,0.0,0.0,78,0.00,CLR,,0.00,WeatherDisplay:10.37,2013-02-23 05:50:00,
2013-02-22 23:55:00,13.6,8.1,29.84,WNW,292,0.0,0.0,78,0.00,CLR,,0.00,WeatherDisplay:10.37,2013-02-23 05:55:00,